Terug naar catalogus

AT&T T-16

ActiefCommunicatieGEO
NORAD 44333·PAYLOAD·🇺🇸 United States

Gelanceerd Jun 20, 2019 vanaf Guiana Space Centre

Loading…

TLE

VersSource: Space-Track

Epoch: Sep 14, 2026, 15:28 UTC

1 44333U 19034A   26257.64454821 -.00000123  00000-0  00000-0 0  9997
2 44333   0.0165 126.8225 0000669 311.7650  46.2189  1.00269928 26534

Volg AT&T T-16 in realtime met AllMySat

Download on the App Store